Year,Month,Day,Hour,Minute,Value (Times are PST for barometer in hPa)
2022,10,02,10,07,1058.96
2022,10,02,10,08,1058.96
2022,10,02,10,09,1058.96
2022,10,02,10,10,1058.96
2022,10,02,10,11,1058.96
2022,10,02,10,12,1058.96
2022,10,02,10,13,1058.96
2022,10,02,10,14,1058.96
2022,10,02,10,15,1058.96
2022,10,02,10,16,1058.96
2022,10,02,10,17,1058.96
2022,10,02,10,18,1058.96
2022,10,02,10,19,1058.96
2022,10,02,10,20,1058.96
2022,10,02,10,21,1058.96
2022,10,02,10,22,1058.96
2022,10,02,10,23,1058.96
2022,10,02,10,24,1058.96
2022,10,02,10,25,1058.96
2022,10,02,10,26,1058.96
2022,10,02,10,27,1058.96
2022,10,02,10,28,1058.96
2022,10,02,10,29,1058.96
2022,10,02,10,30,1058.96
2022,10,02,10,31,1058.96
2022,10,02,10,32,1058.96
2022,10,02,10,33,1058.96
2022,10,02,10,34,1058.96
2022,10,02,10,35,1058.96
2022,10,02,10,36,1058.96
2022,10,02,10,37,1058.96
2022,10,02,10,38,1058.96
2022,10,02,10,39,1058.96
2022,10,02,10,40,1058.96
2022,10,02,10,41,1058.96
2022,10,02,10,42,1058.96
2022,10,02,10,43,1058.96
2022,10,02,10,44,1058.96
2022,10,02,10,45,1058.96
2022,10,02,10,46,1036.49
2022,10,02,10,47,969.05
2022,10,02,10,48,969.05
2022,10,02,10,49,969.35
2022,10,02,10,50,969.35
2022,10,02,10,51,969.35
2022,10,02,10,52,969.35
2022,10,02,10,53,969.35
2022,10,02,10,54,968.81
2022,10,02,10,55,966.89
2022,10,02,10,56,967.44
2022,10,02,10,57,967.80
2022,10,02,10,58,967.44
2022,10,02,10,59,966.10
2022,10,02,11,00,966.10
2022,10,02,11,01,966.10
2022,10,02,11,02,966.03
2022,10,02,11,03,965.83
2022,10,02,11,04,965.56
2022,10,02,11,05,964.75
2022,10,02,11,06,964.75
2022,10,02,11,07,964.75
2022,10,02,11,08,964.75
2022,10,02,11,09,964.32
2022,10,02,11,10,963.02
2022,10,02,11,11,963.02
2022,10,02,11,12,963.02
2022,10,02,11,13,963.02
2022,10,02,11,14,963.02
2022,10,02,11,15,963.02
2022,10,02,11,16,963.02
2022,10,02,11,17,963.02
2022,10,02,11,18,965.19
2022,10,02,11,19,971.41
2022,10,02,11,20,971.89
2022,10,02,11,21,971.89
2022,10,02,11,22,971.66
2022,10,02,11,23,970.98
2022,10,02,11,24,970.64
2022,10,02,11,25,969.72
2022,10,02,11,26,970.01
2022,10,02,11,27,969.66
2022,10,02,11,28,969.49
2022,10,02,11,29,969.90
2022,10,02,11,30,969.64
2022,10,02,11,31,968.57
2022,10,02,11,32,968.24
2022,10,02,11,33,968.24
2022,10,02,11,34,968.24
2022,10,02,11,35,968.24
2022,10,02,11,36,968.24
2022,10,02,11,37,968.24
2022,10,02,11,38,964.68
2022,10,02,11,39,950.46
2022,10,02,11,40,950.46
2022,10,02,11,41,950.46
2022,10,02,11,42,950.46
2022,10,02,11,43,950.46
2022,10,02,11,44,950.46
2022,10,02,11,45,950.46
2022,10,02,11,46,948.86
2022,10,02,11,47,944.06
2022,10,02,11,48,944.06
2022,10,02,11,49,944.06
2022,10,02,11,50,946.43
2022,10,02,11,51,953.54
2022,10,02,11,52,953.54
2022,10,02,11,53,953.54
2022,10,02,11,54,953.54
2022,10,02,11,55,950.94
2022,10,02,11,56,943.14
2022,10,02,11,57,943.14
2022,10,02,11,58,943.14
2022,10,02,11,59,942.77
2022,10,02,12,00,941.65
2022,10,02,12,01,941.65
2022,10,02,12,02,941.65
2022,10,02,12,03,941.65
2022,10,02,12,04,941.65
2022,10,02,12,05,941.65
2022,10,02,12,06,941.65
2022,10,02,12,07,941.65
2022,10,02,12,08,941.65
2022,10,02,12,09,941.65
2022,10,02,12,10,941.65
2022,10,02,12,11,941.65
2022,10,02,12,12,941.65
2022,10,02,12,13,941.65
2022,10,02,12,14,941.65
2022,10,02,12,15,941.65
2022,10,02,12,16,941.65
2022,10,02,12,17,941.65
2022,10,02,12,18,941.65
2022,10,02,12,19,941.65
2022,10,02,12,20,941.65
2022,10,02,12,21,941.65
2022,10,02,12,22,941.65
2022,10,02,12,23,941.65
2022,10,02,12,24,941.65
2022,10,02,12,25,941.65
2022,10,02,12,26,941.65
2022,10,02,12,27,941.65
2022,10,02,12,28,941.66
2022,10,02,12,29,941.69
2022,10,02,12,30,941.71
2022,10,02,12,31,941.76
2022,10,02,12,32,941.76
2022,10,02,12,33,941.76
2022,10,02,12,34,941.76
2022,10,02,12,35,941.76
2022,10,02,12,36,941.76
2022,10,02,12,37,941.76
2022,10,02,12,38,941.76
2022,10,02,12,39,941.76
2022,10,02,12,40,941.76
2022,10,02,12,41,941.76
2022,10,02,12,42,941.76
2022,10,02,12,43,941.76
2022,10,02,12,44,941.76
2022,10,02,12,45,941.76
2022,10,02,12,46,941.76
2022,10,02,12,47,941.76
2022,10,02,12,48,941.76
2022,10,02,12,49,941.76
2022,10,02,12,50,941.76
2022,10,02,12,51,941.76
2022,10,02,12,52,941.76
2022,10,02,12,53,941.76
2022,10,02,12,54,941.76
2022,10,02,12,55,941.76
2022,10,02,12,56,941.76
2022,10,02,12,57,941.76
2022,10,02,12,58,941.76
2022,10,02,12,59,941.76
2022,10,02,13,00,941.76
2022,10,02,13,01,941.76
2022,10,02,13,02,941.76
2022,10,02,13,03,941.76
2022,10,02,13,04,941.76
2022,10,02,13,05,941.76
2022,10,02,13,06,941.76
2022,10,02,13,07,941.76
2022,10,02,13,08,941.76
2022,10,02,13,09,941.76
2022,10,02,13,10,941.76
2022,10,02,13,11,941.76
2022,10,02,13,12,941.76
2022,10,02,13,13,941.76
2022,10,02,13,14,941.76
2022,10,02,13,15,941.76
2022,10,02,13,16,941.76
2022,10,02,13,17,941.76
2022,10,02,13,18,941.76
2022,10,02,13,19,941.76
2022,10,02,13,20,941.76
2022,10,02,13,21,941.76
2022,10,02,13,22,941.76
2022,10,02,13,23,941.76
2022,10,02,13,24,941.76
2022,10,02,13,25,941.76
2022,10,02,13,26,941.76
2022,10,02,13,27,941.76
2022,10,02,13,28,941.76
2022,10,02,13,29,941.76
2022,10,02,13,30,941.77
2022,10,02,13,31,941.79
2022,10,02,13,32,941.79
2022,10,02,13,33,941.79
2022,10,02,13,34,941.80
2022,10,02,13,35,941.86
2022,10,02,13,36,941.86
2022,10,02,13,37,941.86
2022,10,02,13,38,941.86
2022,10,02,13,39,941.86
2022,10,02,13,40,941.86
2022,10,02,13,41,941.86
2022,10,02,13,42,941.86
2022,10,02,13,43,941.86
2022,10,02,13,44,941.86
2022,10,02,13,45,941.86
2022,10,02,13,46,941.86
2022,10,02,13,47,941.86
2022,10,02,13,48,941.86
2022,10,02,13,49,941.86
2022,10,02,13,50,941.86
2022,10,02,13,51,941.86
2022,10,02,13,52,941.86
2022,10,02,13,53,941.86
2022,10,02,13,54,941.86
2022,10,02,13,55,941.86
2022,10,02,13,56,941.86
2022,10,02,13,57,941.86
2022,10,02,13,58,941.86
2022,10,02,13,59,941.86
2022,10,02,14,00,941.86
2022,10,02,14,01,941.86
2022,10,02,14,02,941.86
2022,10,02,14,03,941.86
2022,10,02,14,04,941.86
2022,10,02,14,05,941.86
2022,10,02,14,06,941.86
2022,10,02,14,07,941.86
2022,10,02,14,08,941.86
2022,10,02,14,09,941.86
2022,10,02,14,10,941.86
2022,10,02,14,11,941.86
2022,10,02,14,12,941.86
2022,10,02,14,13,941.86
2022,10,02,14,14,941.86
2022,10,02,14,15,941.86
2022,10,02,14,16,941.86
2022,10,02,14,17,941.86
2022,10,02,14,18,941.86
2022,10,02,14,19,941.86
2022,10,02,14,20,941.86
2022,10,02,14,21,941.86
2022,10,02,14,22,941.86
2022,10,02,14,23,941.86
2022,10,02,14,24,941.86
2022,10,02,14,25,941.86
2022,10,02,14,26,941.86
2022,10,02,14,27,941.86
2022,10,02,14,28,941.86
2022,10,02,14,29,941.86
2022,10,02,14,30,941.86
2022,10,02,14,31,941.86
2022,10,02,14,32,941.86
2022,10,02,14,33,941.86
2022,10,02,14,34,941.86
2022,10,02,14,35,941.86
2022,10,02,14,36,941.86
2022,10,02,14,37,941.86
2022,10,02,14,38,941.86
2022,10,02,14,39,941.86
2022,10,02,14,40,941.86
2022,10,02,14,41,941.86
2022,10,02,14,42,941.86
2022,10,02,14,43,941.86
2022,10,02,14,44,941.86
2022,10,02,14,45,941.86
2022,10,02,14,46,941.86
2022,10,02,14,47,941.86
2022,10,02,14,48,941.86
2022,10,02,14,49,941.86
2022,10,02,14,50,941.86
2022,10,02,14,51,941.86
2022,10,02,14,52,941.86
2022,10,02,14,53,941.86
2022,10,02,14,54,941.86
2022,10,02,14,55,941.86
2022,10,02,14,56,941.86
2022,10,02,14,57,941.86
2022,10,02,14,58,941.86
2022,10,02,14,59,941.86
2022,10,02,15,00,941.86
2022,10,02,15,01,941.86
2022,10,02,15,02,941.86
2022,10,02,15,03,941.86
2022,10,02,15,04,941.86
2022,10,02,15,05,941.85
2022,10,02,15,06,941.79
2022,10,02,15,07,941.79
2022,10,02,15,08,941.78
2022,10,02,15,09,941.76
2022,10,02,15,10,941.76
2022,10,02,15,11,941.76
2022,10,02,15,12,941.76
2022,10,02,15,13,941.76
2022,10,02,15,14,941.76
2022,10,02,15,15,941.76
2022,10,02,15,16,941.76
2022,10,02,15,17,941.76
2022,10,02,15,18,941.76
2022,10,02,15,19,941.76
2022,10,02,15,20,941.76
2022,10,02,15,21,941.76
2022,10,02,15,22,941.76
2022,10,02,15,23,941.76
2022,10,02,15,24,941.76
2022,10,02,15,25,941.76
2022,10,02,15,26,941.76
2022,10,02,15,27,941.76
2022,10,02,15,28,941.76
2022,10,02,15,29,941.76
2022,10,02,15,30,941.76
2022,10,02,15,31,941.76
2022,10,02,15,32,941.76
2022,10,02,15,33,941.76
2022,10,02,15,34,941.76
2022,10,02,15,35,941.76
2022,10,02,15,36,941.76
2022,10,02,15,37,941.76
2022,10,02,15,38,941.75
2022,10,02,15,39,941.71
2022,10,02,15,40,941.65
2022,10,02,15,41,941.65
2022,10,02,15,42,941.65
2022,10,02,15,43,941.65
2022,10,02,15,44,941.65
2022,10,02,15,45,941.65
2022,10,02,15,46,941.65
2022,10,02,15,47,941.65
2022,10,02,15,48,941.65
2022,10,02,15,49,941.65
2022,10,02,15,50,941.65
2022,10,02,15,51,941.65
2022,10,02,15,52,941.65
2022,10,02,15,53,941.65
2022,10,02,15,54,941.65
2022,10,02,15,55,941.65
2022,10,02,15,56,941.65
2022,10,02,15,57,941.65
2022,10,02,15,58,941.65
2022,10,02,15,59,941.65
2022,10,02,16,00,941.65
2022,10,02,16,01,941.65
2022,10,02,16,02,941.65
2022,10,02,16,03,941.65
2022,10,02,16,04,941.65
2022,10,02,16,05,941.65
2022,10,02,16,06,941.65
2022,10,02,16,07,941.65
2022,10,02,16,08,941.65
2022,10,02,16,09,941.65
2022,10,02,16,10,941.89
2022,10,02,16,11,943.14
2022,10,02,16,12,943.14
2022,10,02,16,13,943.14
2022,10,02,16,14,943.14
2022,10,02,16,15,943.14
2022,10,02,16,16,943.14
2022,10,02,16,17,944.59
2022,10,02,16,18,950.76
2022,10,02,16,19,949.87
2022,10,02,16,20,944.80
2022,10,02,16,21,944.37
2022,10,02,16,22,942.67
2022,10,02,16,23,942.67
2022,10,02,16,24,942.67
2022,10,02,16,25,942.67
2022,10,02,16,26,942.67
2022,10,02,16,27,943.60
2022,10,02,16,28,947.11
2022,10,02,16,29,947.11
2022,10,02,16,30,947.11
2022,10,02,16,31,947.11
2022,10,02,16,32,947.11
2022,10,02,16,33,947.11
2022,10,02,16,34,947.11
2022,10,02,16,35,947.11
2022,10,02,16,36,947.11
2022,10,02,16,37,951.62
2022,10,02,16,38,969.66
2022,10,02,16,39,969.50
2022,10,02,16,40,968.83
2022,10,02,16,41,968.66
2022,10,02,16,42,968.49
2022,10,02,16,43,968.76
2022,10,02,16,44,969.05
2022,10,02,16,45,969.28
2022,10,02,16,46,969.65
2022,10,02,16,47,969.59
2022,10,02,16,48,969.63
2022,10,02,16,49,969.87
2022,10,02,16,50,970.02
2022,10,02,16,51,970.51
2022,10,02,16,52,970.33
2022,10,02,16,53,969.65
2022,10,02,16,54,970.04
2022,10,02,16,55,970.51
2022,10,02,16,56,970.33
2022,10,02,16,57,969.63
2022,10,02,16,58,969.63
2022,10,02,16,59,968.55
2022,10,02,17,00,962.44
2022,10,02,17,01,962.55
2022,10,02,17,02,962.46
2022,10,02,17,03,962.72
2022,10,02,17,04,962.64
2022,10,02,17,05,962.28
2022,10,02,17,06,962.27
2022,10,02,17,07,962.70
2022,10,02,17,08,962.85
2022,10,02,17,09,963.10
2022,10,02,17,10,962.73
2022,10,02,17,11,963.28
2022,10,02,17,12,963.78
2022,10,02,17,13,963.73
2022,10,02,17,14,963.23
2022,10,02,17,15,962.68
2022,10,02,17,16,962.68
2022,10,02,17,17,962.85
2022,10,02,17,18,963.79
2022,10,02,17,19,963.71
2022,10,02,17,20,964.17
2022,10,02,17,21,964.17
2022,10,02,17,22,964.17
2022,10,02,17,23,964.02
2022,10,02,17,24,963.19
2022,10,02,17,25,963.19
2022,10,02,17,26,963.19
2022,10,02,17,27,963.64
2022,10,02,17,28,965.46
2022,10,02,17,29,965.71
2022,10,02,17,30,967.09
2022,10,02,17,31,967.09
2022,10,02,17,32,967.09
2022,10,02,17,33,967.09
2022,10,02,17,34,967.09
2022,10,02,17,35,967.09
2022,10,02,17,36,967.09
2022,10,02,17,37,967.09
2022,10,02,17,38,966.80
2022,10,02,17,39,965.65
2022,10,02,17,40,965.77
2022,10,02,17,41,965.93
2022,10,02,17,42,965.93
2022,10,02,17,43,965.98
2022,10,02,17,44,966.20
2022,10,02,17,45,966.20
2022,10,02,17,46,966.20
2022,10,02,17,47,966.20
2022,10,02,17,48,966.20
2022,10,02,17,49,966.20
2022,10,02,17,50,966.20
2022,10,02,17,51,966.20
2022,10,02,17,52,966.20
2022,10,02,17,53,966.20
2022,10,02,17,54,966.20
2022,10,02,17,55,966.20
2022,10,02,17,56,966.49
2022,10,02,17,57,968.01
2022,10,02,17,58,967.93
2022,10,02,17,59,967.93
2022,10,02,18,00,967.93
2022,10,02,18,01,967.93
2022,10,02,18,02,967.93
2022,10,02,18,03,967.93
2022,10,02,18,04,967.93
2022,10,02,18,05,967.93
2022,10,02,18,06,967.93
2022,10,02,18,07,967.93
2022,10,02,18,08,967.66
2022,10,02,18,09,966.51
2022,10,02,18,10,966.51
2022,10,02,18,11,966.51
2022,10,02,18,12,966.51
2022,10,02,18,13,966.51
2022,10,02,18,14,966.79
2022,10,02,18,15,968.28
2022,10,02,18,16,968.12
2022,10,02,18,17,968.00
2022,10,02,18,18,968.00
2022,10,02,18,19,968.00
2022,10,02,18,20,968.00
2022,10,02,18,21,968.00
2022,10,02,18,22,968.00
2022,10,02,18,23,968.00
2022,10,02,18,24,968.00
2022,10,02,18,25,968.00
2022,10,02,18,26,968.00
2022,10,02,18,27,968.00
2022,10,02,18,28,968.00
2022,10,02,18,29,968.00
2022,10,02,18,30,968.00
2022,10,02,18,31,968.00
2022,10,02,18,32,968.00
2022,10,02,18,33,968.00
2022,10,02,18,34,968.00
2022,10,02,18,35,968.00
2022,10,02,18,36,968.00
2022,10,02,18,37,968.00
2022,10,02,18,38,968.00
2022,10,02,18,39,968.00
2022,10,02,18,40,968.00
2022,10,02,18,41,968.00
2022,10,02,18,42,968.00
2022,10,02,18,43,968.00
2022,10,02,18,44,968.00
2022,10,02,18,45,968.00
2022,10,02,18,46,968.00
2022,10,02,18,47,968.00
2022,10,02,18,48,968.00
2022,10,02,18,49,968.00
2022,10,02,18,50,968.00
2022,10,02,18,51,968.00
2022,10,02,18,52,968.00
2022,10,02,18,53,968.00
2022,10,02,18,54,968.00
2022,10,02,18,55,968.00
2022,10,02,18,56,968.00
2022,10,02,18,57,968.00
2022,10,02,18,58,968.00
2022,10,02,18,59,968.00
2022,10,02,19,00,968.00
2022,10,02,19,01,968.00
2022,10,02,19,02,968.00
2022,10,02,19,03,968.00
2022,10,02,19,04,968.00
2022,10,02,19,05,968.00
2022,10,02,19,06,968.00
2022,10,02,19,07,968.00
2022,10,02,19,08,968.00
2022,10,02,19,09,968.00
2022,10,02,19,10,968.00
2022,10,02,19,11,968.00
2022,10,02,19,12,968.00
2022,10,02,19,13,968.00
2022,10,02,19,14,968.00
2022,10,02,19,15,968.00
2022,10,02,19,16,968.00
2022,10,02,19,17,968.00
2022,10,02,19,18,968.00
2022,10,02,19,19,968.00
2022,10,02,19,20,968.00
2022,10,02,19,21,968.00
2022,10,02,19,22,968.00
2022,10,02,19,23,968.00
2022,10,02,19,24,968.00
2022,10,02,19,25,968.00
2022,10,02,19,26,968.00
2022,10,02,19,27,968.00
2022,10,02,19,28,968.00
2022,10,02,19,29,968.00
2022,10,02,19,30,968.00
2022,10,02,19,31,968.00
2022,10,02,19,32,968.00
2022,10,02,19,33,968.00
2022,10,02,19,34,968.00
2022,10,02,19,35,968.00
2022,10,02,19,36,968.00
2022,10,02,19,37,968.00
2022,10,02,19,38,968.00
2022,10,02,19,39,968.00
2022,10,02,19,40,968.00
2022,10,02,19,41,968.00
2022,10,02,19,42,968.00
2022,10,02,19,43,968.00
2022,10,02,19,44,968.00
2022,10,02,19,45,968.00
2022,10,02,19,46,968.00
2022,10,02,19,47,968.00
2022,10,02,19,48,968.00
2022,10,02,19,49,968.00
2022,10,02,19,50,968.00
2022,10,02,19,51,968.00
2022,10,02,19,52,968.00
2022,10,02,19,53,968.00
2022,10,02,19,54,968.00
2022,10,02,19,55,968.00
2022,10,02,19,56,968.00
2022,10,02,19,57,968.00
2022,10,02,19,58,968.00
2022,10,02,19,59,968.00
2022,10,02,20,00,968.00
2022,10,02,20,01,968.00
2022,10,02,20,02,968.00
2022,10,02,20,03,968.00
2022,10,02,20,04,968.00
2022,10,02,20,05,968.00
2022,10,02,20,06,968.00
2022,10,02,20,07,968.00
2022,10,02,20,08,968.00
2022,10,02,20,09,968.00
2022,10,02,20,10,968.00
2022,10,02,20,11,968.00
2022,10,02,20,12,968.00
2022,10,02,20,13,968.00
2022,10,02,20,14,968.00
2022,10,02,20,15,968.00
2022,10,02,20,16,961.80
2022,10,02,20,17,926.69
2022,10,02,20,18,926.69
2022,10,02,20,19,926.69
2022,10,02,20,20,926.69
2022,10,02,20,21,926.69
2022,10,02,20,22,926.69
2022,10,02,20,23,926.69
2022,10,02,20,24,926.69
2022,10,02,20,25,926.69
2022,10,02,20,26,926.69
2022,10,02,20,27,926.69
2022,10,02,20,28,926.69
2022,10,02,20,29,926.69
2022,10,02,20,30,926.69
2022,10,02,20,31,926.69
2022,10,02,20,32,926.69
2022,10,02,20,33,926.69
2022,10,02,20,34,926.69
2022,10,02,20,35,926.69
2022,10,02,20,36,926.69
2022,10,02,20,37,926.69
2022,10,02,20,38,926.69
2022,10,02,20,39,926.69
2022,10,02,20,40,926.69
2022,10,02,20,41,926.69
2022,10,02,20,42,926.69
2022,10,02,20,43,926.69
2022,10,02,20,44,926.69
2022,10,02,20,45,926.69
2022,10,02,20,46,926.69
2022,10,02,20,47,926.69
2022,10,02,20,48,926.69
2022,10,02,20,49,926.69
2022,10,02,20,50,926.69
2022,10,02,20,51,926.69
2022,10,02,20,52,926.69
2022,10,02,20,53,926.69
2022,10,02,20,54,926.69
2022,10,02,20,55,926.69
2022,10,02,20,56,926.69
2022,10,02,20,57,926.69
2022,10,02,20,58,926.69
2022,10,02,20,59,926.69
2022,10,02,21,00,926.69
2022,10,02,21,01,926.69
2022,10,02,21,02,926.69
2022,10,02,21,03,926.69
2022,10,02,21,04,926.69
2022,10,02,21,05,926.69
2022,10,02,21,06,926.69
2022,10,02,21,07,926.69
2022,10,02,21,08,926.69
2022,10,02,21,09,926.69
2022,10,02,21,10,926.69
2022,10,02,21,11,926.69
2022,10,02,21,12,926.69
2022,10,02,21,13,926.69
2022,10,02,21,14,926.69
2022,10,02,21,15,926.69
2022,10,02,21,16,926.69
2022,10,02,21,17,926.69
2022,10,02,21,18,926.69
2022,10,02,21,19,926.69
2022,10,02,21,20,926.69
2022,10,02,21,21,926.69
2022,10,02,21,22,926.69
2022,10,02,21,23,926.69
2022,10,02,21,24,926.69
2022,10,02,21,25,926.69
2022,10,02,21,26,926.69
2022,10,02,21,27,926.69
2022,10,02,21,28,926.69
2022,10,02,21,29,926.69
2022,10,02,21,30,926.69
2022,10,02,21,31,926.69
2022,10,02,21,32,926.69
2022,10,02,21,33,926.69
2022,10,02,21,34,926.69
2022,10,02,21,35,926.69
2022,10,02,21,36,926.69
2022,10,02,21,37,926.69
2022,10,02,21,38,926.69
2022,10,02,21,39,926.69
2022,10,02,21,40,926.69
2022,10,02,21,41,926.69
2022,10,02,21,42,926.69
2022,10,02,21,43,926.69
2022,10,02,21,44,926.69
2022,10,02,21,45,926.69
2022,10,02,21,46,926.69
2022,10,02,21,47,926.69
2022,10,02,21,48,926.69
2022,10,02,21,49,926.69
2022,10,02,21,50,926.69
2022,10,02,21,51,926.69
2022,10,02,21,52,926.69
2022,10,02,21,53,926.69
2022,10,02,21,54,926.69
2022,10,02,21,55,926.69
2022,10,02,21,56,926.69
2022,10,02,21,57,926.69
2022,10,02,21,58,926.69
2022,10,02,21,59,926.69
2022,10,02,22,00,926.69
2022,10,02,22,01,926.69
2022,10,02,22,02,926.69
2022,10,02,22,03,926.69
2022,10,02,22,04,926.69
2022,10,02,22,05,926.69
2022,10,02,22,06,926.69
2022,10,02,22,07,926.69
2022,10,02,22,08,926.69
2022,10,02,22,09,926.69
2022,10,02,22,10,926.69
2022,10,02,22,11,926.69
2022,10,02,22,12,926.69
2022,10,02,22,13,926.69
2022,10,02,22,14,926.69
2022,10,02,22,15,926.69
2022,10,02,22,16,926.69
2022,10,02,22,17,926.69
2022,10,02,22,18,926.69
2022,10,02,22,19,926.69
2022,10,02,22,20,926.69
2022,10,02,22,21,926.69
2022,10,02,22,22,926.69
2022,10,02,22,23,926.69
2022,10,02,22,24,926.69
2022,10,02,22,25,926.69
2022,10,02,22,26,926.69
2022,10,02,22,27,926.69
2022,10,02,22,28,926.69
2022,10,02,22,29,926.69
2022,10,02,22,30,926.69
2022,10,02,22,31,926.69
2022,10,02,22,32,926.69
2022,10,02,22,33,926.69
2022,10,02,22,34,926.69
2022,10,02,22,35,926.69
2022,10,02,22,36,926.69
2022,10,02,22,37,926.69
2022,10,02,22,38,926.69
2022,10,02,22,39,926.69
2022,10,02,22,40,926.69
2022,10,02,22,41,926.69
2022,10,02,22,42,926.69
2022,10,02,22,43,926.69
2022,10,02,22,44,926.69
2022,10,02,22,45,926.69
2022,10,02,22,46,926.69
2022,10,02,22,47,926.69
2022,10,02,22,48,926.69
2022,10,02,22,49,926.69
2022,10,02,22,50,926.69
2022,10,02,22,51,926.69
2022,10,02,22,52,926.69
2022,10,02,22,53,926.69
2022,10,02,22,54,926.69
2022,10,02,22,55,926.69
2022,10,02,22,56,926.69
2022,10,02,22,57,926.69
2022,10,02,22,58,926.69
2022,10,02,22,59,926.69
2022,10,02,23,00,926.69
2022,10,02,23,01,926.69
2022,10,02,23,02,926.69
2022,10,02,23,03,926.69
2022,10,02,23,04,926.69
2022,10,02,23,05,926.69
2022,10,02,23,06,926.69
2022,10,02,23,07,926.69
2022,10,02,23,08,926.69
2022,10,02,23,09,926.69
2022,10,02,23,10,926.69
2022,10,02,23,11,926.69
2022,10,02,23,12,926.69
2022,10,02,23,13,926.69
2022,10,02,23,14,926.69
2022,10,02,23,15,926.69
2022,10,02,23,16,926.69
2022,10,02,23,17,926.69
2022,10,02,23,18,926.69
2022,10,02,23,19,926.69
2022,10,02,23,20,926.69
2022,10,02,23,21,926.69
2022,10,02,23,22,926.69
2022,10,02,23,23,926.69
2022,10,02,23,24,926.69
2022,10,02,23,25,926.69
2022,10,02,23,26,926.69
2022,10,02,23,27,926.69
2022,10,02,23,28,926.69
2022,10,02,23,29,926.69
2022,10,02,23,30,926.69
2022,10,02,23,31,926.69
2022,10,02,23,32,926.69
2022,10,02,23,33,926.69
2022,10,02,23,34,926.69
2022,10,02,23,35,926.69
2022,10,02,23,36,926.69
2022,10,02,23,37,926.69
2022,10,02,23,38,926.69
2022,10,02,23,39,926.69
2022,10,02,23,40,926.69
2022,10,02,23,41,926.69
2022,10,02,23,42,926.69
2022,10,02,23,43,926.69
2022,10,02,23,44,926.69
2022,10,02,23,45,926.69
2022,10,02,23,46,926.69
2022,10,02,23,47,926.69
2022,10,02,23,48,926.69
2022,10,02,23,49,926.69
2022,10,02,23,50,926.69
2022,10,02,23,51,926.69
2022,10,02,23,52,926.69
2022,10,02,23,53,926.69
2022,10,02,23,54,926.69
2022,10,02,23,55,926.69
2022,10,02,23,56,926.69
2022,10,02,23,57,925.64
2022,10,02,23,58,906.77
2022,10,02,23,59,906.77
